Location: Dover
(39.1580°N, 75.5250°W)
Time: 04:52:54
(UTC-05:00)

ISS - All Passes

Search period start: 08 December 2016 00:00
Search period end: 18 December 2016 00:00
Orbit: 401 x 410 km, 51.6° (Epoch: 08 December)

Date Brightness Start Highest point End Pass type
(mag) Time Alt. Az. Time Alt. Az. Time Alt. Az.
08 Dec - 15:00:36 10° SW 15:03:50 63° SE 15:07:06 10° ENE daylight
08 Dec - 16:38:06 10° WNW 16:40:36 20° NNW 16:43:07 10° NNE daylight
08 Dec - 19:53:58 10° NNW 19:55:48 14° NNE 19:57:39 10° NE night (unlit)
08 Dec - 21:29:37 10° NW 21:32:52 57° NE 21:36:08 10° ESE night (unlit)
08 Dec - 23:07:12 10° W 23:09:02 14° SW 23:10:52 10° SSW night (unlit)
09 Dec - 14:09:04 10° SSW 14:11:59 30° SE 14:14:56 10° ENE daylight
09 Dec - 15:45:32 10° W 15:48:28 29° NNW 15:51:26 10° NE daylight
09 Dec - 17:24:53 10° NNW 17:25:49 11° N 17:26:45 10° N visible
09 Dec - 19:02:25 10° N 19:03:32 11° N 19:04:39 10° NNE visible
09 Dec - 20:37:48 10° NW 20:40:50 32° NNE 20:43:52 10° E night (unlit)
09 Dec - 22:14:25 10° WNW 22:17:16 27° SW 22:20:07 10° SSE night (unlit)
10 Dec - 13:18:08 10° S 13:20:12 16° SE 13:22:18 10° E daylight
10 Dec - 14:53:13 10° WSW 14:56:25 50° NW 14:59:38 10° NE daylight
10 Dec - 16:31:51 10° NW 16:33:32 13° NNW 16:35:13 10° NNE daylight
10 Dec - 19:46:06 10° NNW 19:48:43 21° NNE 19:51:20 10° ENE night (unlit)
10 Dec - 21:22:11 10° WNW 21:25:26 55° SW 21:28:39 10° SE night (unlit)
11 Dec - 14:01:09 10° SW 14:04:26 84° SE 14:07:43 10° NE daylight
11 Dec - 15:39:00 10° WNW 15:41:17 17° NNW 15:43:35 10° NNE daylight
11 Dec - 18:54:26 10° NNW 18:56:31 15° NNE 18:58:35 10° ENE visible
11 Dec - 20:30:10 10° NW 20:33:29 74° NE 20:36:47 10° ESE night (unlit)
11 Dec - 22:08:40 10° WSW 22:09:32 11° SW 22:10:23 10° SW night (unlit)
12 Dec - 13:09:26 10° SSW 13:12:30 40° SE 13:15:37 10° ENE daylight
12 Dec - 14:46:20 10° W 14:49:06 25° NNW 14:51:53 10° NNE daylight
12 Dec - 16:26:00 10° NNW 16:26:32 10° N 16:27:02 10° N daylight
12 Dec - 18:02:49 10° NNW 18:04:14 12° NNE 18:05:38 10° NE visible
12 Dec - 19:38:18 10° NW 19:41:26 39° NNE 19:44:35 10° ESE visible
12 Dec - 21:15:11 10° W 21:17:46 21° SW 21:20:20 10° S night (unlit)
13 Dec - 12:18:10 10° S 12:20:40 20° SE 12:23:10 10° E daylight
13 Dec - 13:53:52 10° WSW 13:56:58 40° NNW 14:00:06 10° NE daylight
13 Dec - 15:32:47 10° NW 15:34:11 12° NNW 15:35:35 10° NNE daylight
13 Dec - 17:11:22 10° N 17:11:53 10° N 17:12:24 10° NNE visible
13 Dec - 18:46:31 10° NNW 18:49:19 25° NNE 18:52:06 10° E visible
13 Dec - 20:22:46 10° WNW 20:25:54 41° SW 20:29:02 10° SSE night (unlit)
14 Dec - 11:28:18 10° SE 11:28:53 10° SE 11:29:28 10° ESE daylight
14 Dec - 13:01:39 10° WSW 13:04:55 75° NW 13:08:13 10° NE daylight
14 Dec - 14:39:49 10° WNW 14:41:53 15° NNW 14:43:57 10° NNE daylight
14 Dec - 17:54:48 10° NNW 17:57:05 17° NNE 17:59:23 10° ENE visible
14 Dec - 19:30:39 10° NW 19:33:57 85° SW 19:37:15 10° SE visible
15 Dec - 12:09:45 10° SW 12:12:56 53° SE 12:16:09 10° ENE daylight
15 Dec - 13:47:01 10° WNW 13:49:37 21° NNW 13:52:15 10° NNE daylight
15 Dec - 17:03:08 10° NNW 17:04:48 13° NNE 17:06:28 10° NE daylight
15 Dec - 18:38:41 10° NW 18:41:55 49° NE 18:45:08 10° ESE visible
15 Dec - 20:15:58 10° W 20:18:08 16° SW 20:20:17 10° S night (unlit)
16 Dec - 11:18:14 10° SSW 11:21:01 26° SE 11:23:49 10° ENE daylight
16 Dec - 12:54:27 10° W 12:57:26 32° NNW 13:00:27 10° NE daylight
16 Dec - 14:33:39 10° NNW 14:34:43 11° N 14:35:48 10° N daylight
16 Dec - 16:11:33 10° N 16:12:26 11° N 16:13:19 10° NNE daylight
16 Dec - 17:46:50 10° NW 17:49:47 29° NNE 17:52:43 10° E visible
16 Dec - 19:23:17 10° WNW 19:26:16 31° SW 19:29:14 10° SSE visible
17 Dec - 10:27:28 10° SSE 10:29:11 14° SE 10:30:52 10° E daylight
17 Dec - 12:02:05 10° WSW 12:05:18 58° NW 12:08:33 10° NE daylight
17 Dec - 13:40:33 10° NW 13:42:22 14° NNW 13:44:10 10° NNE daylight
17 Dec - 16:55:03 10° NNW 16:57:33 19° NNE 17:00:03 10° ENE daylight
17 Dec - 18:31:02 10° WNW 18:34:19 65° SW 18:37:34 10° SE visible
